{"data":{"norad_id":64245,"epoch":"2026-05-24T06:23:39.006816Z","epoch_age_seconds":134352,"freshness":"FRESH","line1":"1 64245U 25119N   26144.26642369  .00160646  00000+0  12310-2 0  9995","line2":"2 64245  43.0022 113.3199 0001533 266.5078  93.5614 15.70847868 57135","mean_motion":15.70847868,"eccentricity":0.0001533,"inclination_deg":43.0022,"raan_deg":113.3199,"arg_perigee_deg":266.5078,"mean_anomaly_deg":93.5614,"bstar":0.001231,"rev_number":5713,"period_min":91.670239323265,"perigee_km":355.4401577983,"apogee_km":357.50498909352,"semimajor_km":6734.6095734459,"source":"CELESTRAK","updated_at":"2026-05-25T13:38:20.353761Z"}}